User: anonymous   Login
Location: Unspecified
(0.0000°N, 0.0000°E)
Time: 02:56:33
(UTC+00:00)
Language:

Galileo 5 - Orbit

View from above orbital plane
View from above orbital plane
View from above satellite
View from above satellite

Ground track
Ground track

The orbit data is extracted from the following two-line orbital elements,

1 40128U 14050A   17231.66382574 -.00000068  00000-0  00000+0 0  9994
2 40128  50.3426  42.6676 1629885  65.7528 310.4647  1.85518689 20457
Epoch (UTC): 19 August 2017 15:55:54
Eccentricity: 0.1629885
inclination: 50.3426°
perigee height: 17039 km
apogee height: 26159 km
right ascension of ascending node: 42.6676°
argument of perigee: 65.7528°
revolutions per day: 1.85518689
mean anomaly at epoch: 310.4647°
orbit number at epoch: 2045

The dashed part of the orbit path shows where the satellite is in the earth's shadow,  

DLR